DELTA 1 DEB, 10824

Orbit data source: Space-Track

DELTA 1 DEB, 10824 is space debris in SSO originally from a launch on Thu, 29 Jul 1976 UTC launched from the Air Force Western Test Range (AFWTR). Debris objects in space refer to the collection of defunct objects orbiting the Earth. Examples of debris include non-operational satellites, rocket bodies, and fragments generated from explosions, collisions, or faulty payload assembly.

Loading next visibility...
Identifier
10824, 1976-077BU
Orbit
SSO
Country
Flag of USUS
Related business
Manufacturer
Unknown
Mission
Spacecraft
Bus & Motor
Unknown
Mass
Unknown
Launch date (UTC)
1976-07-29 (50 years ago)
Launch vehicle
Unknown
Launch site
Air Force Western Test Range (AFWTR)
Object type
Payload
Rocket body
Debris
Shape & HBR
Unknown shape, 0.1 m
Radar Cross Section
Small (<0.1 m²)

Expand to show TLE details & history
Last TLE update: 20 hours ago

TLE from 20 hours ago
0 DELTA 1 DEB
1 10824U 76077BU  26106.61091708  .00010895  00000-0  66561-2 0  9998
2 10824 101.9087 339.7650 0025028 241.5081 151.4172 14.06007797372198
Epoch: 2026-04-16T14:39Z
TLE epoch observation values (Epoch: 2026-04-16T14:39:43.235Z)
Latitude
32.32544°
Longitude
-92.54971°
Altitude
893.029 km
Speed
7.4 km/s
True Right ascension
22h 08m 32s
True Declination
32° 10' 23"
Sunlit
Object was in daylight at epoch
Visualization orbit readout
Latitude
Unknown
Longitude
Unknown
Altitude
Unknown
Speed
Unknown
Apparent Right ascension
Unknown
Apparent Declination
Unknown
Sunlit
N/A
Visualization observer readout
Local Sidereal Time
17:06:44
Azimuth
Unknown
Elevation
Unknown
Doppler factor
Unknown
Orbital elements
Apogee altitude
888.563 km
Perigee altitude
852.28 km
Semi-major axis
7,248.559 km
Eccentricity
0.0025
Inclination
101.9087°
RAAN
339.765°
Arg. of periapsis
241.5081°
True anomaly
151.55404°
Mean anomaly
151.4172°
Eccentric anomaly
151.48566°
Mean motion
3.51695 °/min
Orbital period
102.36 mins
BSTAR
0.0066561
Loading maneuver chart data...
Computing Atmospheric mass density...
Loading historical data...
Loading historical data...
Loading historical data...
Loading historical data...
Loading historical data...
Loading historical data...
Loading historical data...

Documentation

Showing up to 5 results
|